Starlink 35706

operational
NORAD ID: 67051 Int'l Des: 2025-294 Owner: SPXS Country: US Constellation: starlink
LEOCIRCULAR

Über Starlink 35706

Beschreibung wird geladen...

Live-Position

3D-Globus wird geladen...

Nächste Überflüge

Höhenverlauf

Altitude vs Time

uPlot chart will show altitude changes over time

Zweizeiliger Elementsatz

1 67051C 25294X 25346.87479167 .01019800 00000+0 14663-2 0 3466
2 67051 43.0031 182.5138 0009313 280.9377 325.3625 16.03312917 12
Epoch: 12. Dez. 2025 • Age: 57 hours

Aktueller Status

Höhe 262.2 km
Geschwindigkeit 7.75 km/s
Subsatellitenpunkt -37.08°S, 99.85°W
Startdatum 11. Dez. 2025
Alter 2 days
Typ internet

Technische Details

Klassifizierung Payload
Masse 575.00 kg
Trockenmasse 530.00 kg
Gesamtmasse 575.00 kg
Länge 0.30 m
Durchmesser 4.10 m
Spannweite 29.00 m
Form Box + pan
Hersteller SPXS
Bus-Typ Starlink V2MO
Phasenstatus In Orbit
Besitzer/Staat SPXS/US

Große Konstellationen

Loading constellations...